• Processing (Info)

  • MPEC 2006-C38 : 2006 CT9

    The following Minor Planet Electronic Circular may be linked-to from your own Web pages, but must not otherwise be redistributed electronically.

    A form allowing access to any MPEC is at the bottom of this page.


    Read MPEC 2006-C37 Read MPEC 2006-C39


    M.P.E.C. 2006-C38                                Issued 2006 Feb. 6, 15:40 UT
    
         The Minor Planet Electronic Circulars contain information on unusual
             minor planets and routine data on comets.  They are published
       on behalf of Commission 20 of the International Astronomical Union by the
              Minor Planet Center, Smithsonian Astrophysical Observatory,
                              Cambridge, MA 02138, U.S.A.
    
                      Supported in part by the Brinson Foundation
                      Supported in part by the TABASGO Foundation
                 Prepared using the Tamkin Foundation Computer Network
    
                                  MPC@CFA.HARVARD.EDU
              URL http://cfa-www.harvard.edu/iau/mpc.html  ISSN 1523-6714
    
                                       2006 CT9
    
    Observations:
         K06C09T* C2006 02 04.22951 09 09 16.27 +17 10 09.0          20.9 V EC038703
         K06C09T  C2006 02 04.23726 09 09 14.61 +17 10 32.9          20.2 V EC038703
         K06C09T  C2006 02 04.24498 09 09 12.81 +17 10 55.8          20.1 V EC038703
         K06C09T  C2006 02 04.25266 09 09 11.16 +17 11 19.6          20.3 V EC038703
         K06C09T  C2006 02 04.30597 09 08 59.50 +17 14 01.7          19.3 V EC038G96
         K06C09T  C2006 02 04.30686 09 08 59.31 +17 14 04.8          19.5 V EC038G96
         K06C09T  C2006 02 04.30774 09 08 59.11 +17 14 06.5          19.8 V EC038G96
         K06C09T  C2006 02 04.30862 09 08 58.90 +17 14 09.3          19.8 V EC038G96
         K06C09T  C2006 02 04.31509 09 08 57.51 +17 14 29.3          19.5 V EC038G96
         K06C09T  C2006 02 04.32240 09 08 55.88 +17 14 50.9          19.5 V EC038G96
         K06C09T  C2006 02 04.33691 09 08 52.63 +17 15 35.3          19.5 V EC038G96
         K06C09T  C2006 02 05.00520 09 06 27.51 +17 49 21.8          20.2 R EC038143
         K06C09T  C2006 02 05.00968 09 06 26.48 +17 49 36.2          20.3 R EC038143
         K06C09T  C2006 02 05.10321 09 06 05.64 +17 54 20.2                 EC038J95
         K06C09T  C2006 02 05.10769 09 06 04.68 +17 54 33.8                 EC038J95
         K06C09T  C2006 02 05.11385 09 06 03.14 +17 54 52.3          20.2 R EC038J95
         K06C09T  C2006 02 05.15736 09 05 54.59 +17 57 09.0          20.2 R EC038H36
         K06C09T  C2006 02 05.19447 09 05 46.25 +17 59 04.8          20.5 R EC038H36
         K06C09T  C2006 02 05.20516 09 05 43.88 +17 59 37.0          20.0 R EC038H36
         K06C09T  C2006 02 05.31089 09 05 20.11 +18 05 03.9          19.9 V EC038G96
         K06C09T  C2006 02 05.31729 09 05 18.60 +18 05 23.5          20.4 V EC038G96
         K06C09T  C2006 02 05.32402 09 05 17.08 +18 05 44.1          20.3 V EC038G96
         K06C09T  C2006 02 06.24734 09 01 49.00 +18 53 33.3          20.5 V EC038G96
         K06C09T  C2006 02 06.25335 09 01 47.56 +18 53 53.0          20.1 V EC038G96
         K06C09T  C2006 02 06.25947 09 01 46.09 +18 54 11.7          20.3 V EC038G96
         K06C09T  C2006 02 06.26546 09 01 44.72 +18 54 30.5          20.4 V EC038G96
    
    Observer details:
    143 Gnosca.  Observer S. Sposetti.  0.40-m f/4 reflector + CCD.
    703 Catalina Sky Survey.  Observer E. J. Christensen.  Measurers E. C. Beshore,
        E. J. Christensen, G. J. Garradd, A. D. Grauer, R. E. Hill, R. A. Kowalski,
        S. M. Larson, R. H. McNaught.  0.68-m Schmidt + CCD.
    G96 Mt. Lemmon Survey.  Observers R. Hill, R. A. Kowalski.  Measurers
        E. C. Beshore, E. J. Christensen, G. J. Garradd, A. D. Grauer, R. E. Hill,
        R. A. Kowalski, S. M. Larson, R. H. McNaught.  1.5-m reflector + CCD.
    H36 Sandlot Observatory, Scranton.  Observer G. Hug.  0.30-m
        Schmidt-Cassegrain + CCD.
    J95 Great Shefford.  Observer P. Birtwhistle.  0.40-m f/6.0 Schmidt-Cassegrain
        + CCD.
    
    Orbital elements:
    2006 CT9                                                 Earth MOID = 0.2504 AU
    Epoch 2006 Mar. 6.0 TT = JDT 2453800.5                  MPC
    M 303.36397              (2000.0)            P               Q
    n   0.75008664     Peri.  149.03155     +0.30390963     +0.85808080
    a   1.1996699      Node   134.59788     -0.94886947     +0.31155178
    e   0.6795200      Incl.   35.54322     -0.08535612     -0.40820684
    P   1.31           H   20.3           G   0.15           U   9
    Residuals in seconds of arc
    060204 703  0.1-  1.2-    060204 G96  0.3+  0.3+    060205 H36  0.5+  0.4+
    060204 703  0.4+  0.7-    060204 G96  0.4-  0.9+    060205 G96  0.8+  0.0
    060204 703  1.1-  1.1-    060205 143  0.4+  0.0     060205 G96  0.1+  0.1-
    060204 703  0.6-  0.5-    060205 143  0.1+  0.7+    060205 G96  0.4+  0.2-
    060204 G96  0.3+  0.6+    060205 J95  0.2+  0.1-    060206 G96  0.3+  0.3-
    060204 G96  0.4+  1.0+    060205 J95  0.8+  0.2-    060206 G96  0.1-  0.5+
    060204 G96  0.3+  0.1+    060205 J95  1.5-  0.5-    060206 G96  0.5-  0.1-
    060204 G96  0.1+  0.2+    060205 H36  0.8-  0.2-    060206 G96  0.1+  0.1-
    060204 G96  0.6+  0.7+    060205 H36  0.2-  1.1+
    
    Ephemeris:
    2006 CT9                 a,e,i = 1.20, 0.68, 36                  q = 0.3845
    Date    TT    R. A. (2000) Decl.     Delta      r     Elong.  Phase     V
    2006 02 04    09 10.08   +16 58.7    0.553    1.538   179.4     0.4    20.0
    2006 02 14    08 28.52   +25 57.0    0.498    1.459   157.1    15.3    20.4
    2006 02 24    07 37.44   +34 42.0    0.486    1.372   133.8    31.4    20.8
    2006 03 06    06 45.17   +41 18.5    0.509    1.276   112.5    45.9    21.1
    2006 03 16    05 59.42   +45 35.1    0.549    1.172    94.4    57.8    21.4
    2006 03 26    05 21.56   +48 19.9    0.590    1.058    79.0    67.8    21.7
    2006 04 05    04 47.79   +50 08.7    0.623    0.933    65.5    77.1    21.8
    
    Gareth V. Williams           (C) Copyright 2006 MPC           M.P.E.C. 2006-C38
    

    Read MPEC 2006-C37 Read MPEC 2006-C39


    MPEC number:

    Enter an MPEC number in one of the following forms:

    • 1997-B01 (the full form)
    • J97B01 (the packed version of the full form)
    • B01 (the abbreviated form)